Year,Month,Day,Hour,Minute,Value (Times are PST for temperature in C)
2018,08,04,00,00,15.30
2018,08,04,00,01,15.30
2018,08,04,00,02,15.30
2018,08,04,00,03,15.30
2018,08,04,00,04,15.30
2018,08,04,00,05,15.30
2018,08,04,00,06,15.20
2018,08,04,00,07,15.20
2018,08,04,00,08,15.20
2018,08,04,00,09,15.20
2018,08,04,00,10,15.20
2018,08,04,00,11,15.20
2018,08,04,00,12,15.20
2018,08,04,00,13,15.20
2018,08,04,00,14,15.20
2018,08,04,00,15,15.10
2018,08,04,00,16,15.10
2018,08,04,00,17,15.10
2018,08,04,00,18,15.10
2018,08,04,00,19,15.10
2018,08,04,00,20,15.10
2018,08,04,00,21,15.10
2018,08,04,00,22,15.10
2018,08,04,00,23,15.00
2018,08,04,00,24,15.00
2018,08,04,00,25,15.00
2018,08,04,00,26,15.00
2018,08,04,00,27,15.00
2018,08,04,00,28,15.00
2018,08,04,00,29,14.90
2018,08,04,00,30,14.90
2018,08,04,00,31,14.90
2018,08,04,00,32,14.90
2018,08,04,00,33,14.90
2018,08,04,00,34,14.90
2018,08,04,00,35,14.90
2018,08,04,00,36,14.90
2018,08,04,00,37,14.90
2018,08,04,00,38,14.90
2018,08,04,00,39,14.90
2018,08,04,00,40,14.90
2018,08,04,00,41,14.90
2018,08,04,00,42,14.90
2018,08,04,00,43,14.90
2018,08,04,00,44,14.90
2018,08,04,00,45,14.90
2018,08,04,00,46,14.90
2018,08,04,00,47,14.90
2018,08,04,00,48,14.90
2018,08,04,00,49,14.90
2018,08,04,00,50,14.90
2018,08,04,00,51,14.90
2018,08,04,00,52,14.90
2018,08,04,00,53,14.90
2018,08,04,00,54,14.90
2018,08,04,00,55,14.90
2018,08,04,00,56,14.90
2018,08,04,00,57,14.90
2018,08,04,00,58,14.90
2018,08,04,00,59,14.90
2018,08,04,01,00,14.90
2018,08,04,01,01,14.90
2018,08,04,01,02,14.90
2018,08,04,01,03,14.90
2018,08,04,01,04,14.90
2018,08,04,01,05,14.90
2018,08,04,01,06,14.90
2018,08,04,01,07,14.90
2018,08,04,01,08,14.90
2018,08,04,01,09,14.80
2018,08,04,01,10,14.80
2018,08,04,01,11,14.80
2018,08,04,01,12,14.80
2018,08,04,01,13,14.80
2018,08,04,01,14,14.80
2018,08,04,01,15,14.80
2018,08,04,01,16,14.80
2018,08,04,01,17,14.70
2018,08,04,01,18,14.80
2018,08,04,01,19,14.70
2018,08,04,01,20,14.70
2018,08,04,01,21,14.70
2018,08,04,01,22,14.70
2018,08,04,01,23,14.70
2018,08,04,01,24,14.70
2018,08,04,01,25,14.70
2018,08,04,01,26,14.70
2018,08,04,01,27,14.70
2018,08,04,01,28,14.70
2018,08,04,01,29,14.70
2018,08,04,01,30,14.70
2018,08,04,01,31,14.70
2018,08,04,01,32,14.70
2018,08,04,01,33,14.70
2018,08,04,01,34,14.70
2018,08,04,01,35,14.70
2018,08,04,01,36,14.70
2018,08,04,01,37,14.70
2018,08,04,01,38,14.70
2018,08,04,01,39,14.70
2018,08,04,01,40,14.70
2018,08,04,01,41,14.60
2018,08,04,01,42,14.60
2018,08,04,01,43,14.60
2018,08,04,01,44,14.60
2018,08,04,01,45,14.60
2018,08,04,01,46,14.50
2018,08,04,01,47,14.50
2018,08,04,01,48,14.40
2018,08,04,01,49,14.40
2018,08,04,01,50,14.40
2018,08,04,01,51,14.40
2018,08,04,01,52,14.40
2018,08,04,01,53,14.40
2018,08,04,01,54,14.40
2018,08,04,01,55,14.40
2018,08,04,01,56,14.40
2018,08,04,01,57,14.40
2018,08,04,01,58,14.40
2018,08,04,01,59,14.40
2018,08,04,02,00,14.40
2018,08,04,02,01,14.40
2018,08,04,02,02,14.30
2018,08,04,02,03,14.30
2018,08,04,02,04,14.30
2018,08,04,02,05,14.30
2018,08,04,02,06,14.30
2018,08,04,02,07,14.30
2018,08,04,02,08,14.30
2018,08,04,02,09,14.30
2018,08,04,02,10,14.30
2018,08,04,02,11,14.20
2018,08,04,02,12,14.20
2018,08,04,02,13,14.20
2018,08,04,02,14,14.20
2018,08,04,02,15,14.20
2018,08,04,02,16,14.20
2018,08,04,02,17,14.20
2018,08,04,02,18,14.20
2018,08,04,02,19,14.20
2018,08,04,02,20,14.20
2018,08,04,02,21,14.20
2018,08,04,02,22,14.20
2018,08,04,02,23,14.20
2018,08,04,02,24,14.20
2018,08,04,02,25,14.20
2018,08,04,02,26,14.20
2018,08,04,02,27,14.20
2018,08,04,02,28,14.20
2018,08,04,02,29,14.10
2018,08,04,02,30,14.10
2018,08,04,02,31,14.10
2018,08,04,02,32,14.10
2018,08,04,02,33,14.10
2018,08,04,02,34,14.10
2018,08,04,02,35,14.10
2018,08,04,02,36,14.10
2018,08,04,02,37,14.10
2018,08,04,02,38,14.10
2018,08,04,02,39,14.00
2018,08,04,02,40,14.00
2018,08,04,02,41,14.00
2018,08,04,02,42,14.00
2018,08,04,02,43,14.10
2018,08,04,02,44,14.10
2018,08,04,02,45,14.00
2018,08,04,02,46,14.00
2018,08,04,02,47,14.00
2018,08,04,02,48,14.00
2018,08,04,02,49,14.00
2018,08,04,02,50,14.00
2018,08,04,02,51,14.00
2018,08,04,02,52,13.90
2018,08,04,02,53,13.90
2018,08,04,02,54,13.90
2018,08,04,02,55,13.90
2018,08,04,02,56,13.90
2018,08,04,02,57,13.90
2018,08,04,02,58,13.80
2018,08,04,02,59,13.80
2018,08,04,03,00,13.80
2018,08,04,03,01,13.80
2018,08,04,03,02,13.80
2018,08,04,03,03,13.80
2018,08,04,03,04,13.70
2018,08,04,03,05,13.70
2018,08,04,03,06,13.70
2018,08,04,03,07,13.70
2018,08,04,03,08,13.70
2018,08,04,03,09,13.70
2018,08,04,03,10,13.70
2018,08,04,03,11,13.60
2018,08,04,03,12,13.60
2018,08,04,03,13,13.60
2018,08,04,03,14,13.50
2018,08,04,03,15,13.50
2018,08,04,03,16,13.40
2018,08,04,03,17,13.40
2018,08,04,03,18,13.40
2018,08,04,03,19,13.40
2018,08,04,03,20,13.40
2018,08,04,03,21,13.30
2018,08,04,03,22,13.30
2018,08,04,03,23,13.40
2018,08,04,03,24,13.30
2018,08,04,03,25,13.30
2018,08,04,03,26,13.30
2018,08,04,03,27,13.30
2018,08,04,03,28,13.30
2018,08,04,03,29,13.30
2018,08,04,03,30,13.30
2018,08,04,03,31,13.20
2018,08,04,03,32,13.20
2018,08,04,03,33,13.20
2018,08,04,03,34,13.20
2018,08,04,03,35,13.20
2018,08,04,03,36,13.10
2018,08,04,03,37,13.10
2018,08,04,03,38,13.10
2018,08,04,03,39,13.10
2018,08,04,03,40,13.10
2018,08,04,03,41,13.10
2018,08,04,03,42,13.00
2018,08,04,03,43,13.00
2018,08,04,03,44,13.00
2018,08,04,03,45,12.90
2018,08,04,03,46,12.90
2018,08,04,03,47,12.90
2018,08,04,03,48,12.90
2018,08,04,03,49,12.90
2018,08,04,03,50,12.90
2018,08,04,03,51,12.90
2018,08,04,03,52,12.80
2018,08,04,03,53,12.80
2018,08,04,03,54,12.80
2018,08,04,03,55,12.80
2018,08,04,03,56,12.80
2018,08,04,03,57,12.80
2018,08,04,03,58,12.70
2018,08,04,03,59,12.70
2018,08,04,04,00,12.70
2018,08,04,04,01,12.70
2018,08,04,04,02,12.70
2018,08,04,04,03,12.70
2018,08,04,04,04,12.70
2018,08,04,04,05,12.70
2018,08,04,04,06,12.60
2018,08,04,04,07,12.60
2018,08,04,04,08,12.60
2018,08,04,04,09,12.60
2018,08,04,04,10,12.60
2018,08,04,04,11,12.60
2018,08,04,04,12,12.50
2018,08,04,04,13,12.50
2018,08,04,04,14,12.50
2018,08,04,04,15,12.50
2018,08,04,04,16,12.50
2018,08,04,04,17,12.50
2018,08,04,04,18,12.50
2018,08,04,04,19,12.50
2018,08,04,04,20,12.40
2018,08,04,04,21,12.50
2018,08,04,04,22,12.50
2018,08,04,04,23,12.50
2018,08,04,04,24,12.50
2018,08,04,04,25,12.50
2018,08,04,04,26,12.40
2018,08,04,04,27,12.40
2018,08,04,04,28,12.40
2018,08,04,04,29,12.40
2018,08,04,04,30,12.40
2018,08,04,04,31,12.40
2018,08,04,04,32,12.40
2018,08,04,04,33,12.40
2018,08,04,04,34,12.40
2018,08,04,04,35,12.40
2018,08,04,04,36,12.40
2018,08,04,04,37,12.40
2018,08,04,04,38,12.40
2018,08,04,04,39,12.40
2018,08,04,04,40,12.40
2018,08,04,04,41,12.40
2018,08,04,04,42,12.40
2018,08,04,04,43,12.40
2018,08,04,04,44,12.40
2018,08,04,04,45,12.30
2018,08,04,04,46,12.30
2018,08,04,04,47,12.30
2018,08,04,04,48,12.40
2018,08,04,04,49,12.30
2018,08,04,04,50,12.30
2018,08,04,04,51,12.30
2018,08,04,04,52,12.30
2018,08,04,04,53,12.30
2018,08,04,04,54,12.30
2018,08,04,04,55,12.30
2018,08,04,04,56,12.30
2018,08,04,04,57,12.30
2018,08,04,04,58,12.30
2018,08,04,04,59,12.30
2018,08,04,05,00,12.30
2018,08,04,05,01,12.30
2018,08,04,05,02,12.30
2018,08,04,05,03,12.30
2018,08,04,05,04,12.30
2018,08,04,05,05,12.30
2018,08,04,05,06,12.30
2018,08,04,05,07,12.40
2018,08,04,05,08,12.30
2018,08,04,05,09,12.30
2018,08,04,05,10,12.30
2018,08,04,05,11,12.30
2018,08,04,05,12,12.30
2018,08,04,05,13,12.30
2018,08,04,05,14,12.40
2018,08,04,05,15,12.40
2018,08,04,05,16,12.40
2018,08,04,05,17,12.40
2018,08,04,05,18,12.40
2018,08,04,05,19,12.40
2018,08,04,05,20,12.40
2018,08,04,05,21,12.40
2018,08,04,05,22,12.40
2018,08,04,05,23,12.40
2018,08,04,05,24,12.40
2018,08,04,05,25,12.40
2018,08,04,05,26,12.40
2018,08,04,05,27,12.40
2018,08,04,05,28,12.40
2018,08,04,05,29,12.30
2018,08,04,05,30,12.30
2018,08,04,05,31,12.30
2018,08,04,05,32,12.30
2018,08,04,05,33,12.30
2018,08,04,05,34,12.20
2018,08,04,05,35,12.20
2018,08,04,05,36,12.20
2018,08,04,05,37,12.20
2018,08,04,05,38,12.20
2018,08,04,05,39,12.20
2018,08,04,05,40,12.20
2018,08,04,05,41,12.20
2018,08,04,05,42,12.20
2018,08,04,05,43,12.20
2018,08,04,05,44,12.10
2018,08,04,05,45,12.10
2018,08,04,05,46,12.10
2018,08,04,05,47,12.10
2018,08,04,05,48,12.10
2018,08,04,05,49,12.00
2018,08,04,05,50,12.00
2018,08,04,05,51,12.00
2018,08,04,05,52,11.90
2018,08,04,05,53,11.90
2018,08,04,05,54,11.90
2018,08,04,05,55,11.90
2018,08,04,05,56,11.90
2018,08,04,05,57,11.90
2018,08,04,05,58,11.90
2018,08,04,05,59,11.90
2018,08,04,06,00,11.80
2018,08,04,06,01,11.80
2018,08,04,06,02,11.80
2018,08,04,06,03,11.80
2018,08,04,06,04,11.80
2018,08,04,06,05,11.80
2018,08,04,06,06,11.80
2018,08,04,06,07,11.80
2018,08,04,06,08,11.80
2018,08,04,06,09,11.80
2018,08,04,06,10,11.80
2018,08,04,06,11,11.80
2018,08,04,06,12,11.80
2018,08,04,06,13,11.80
2018,08,04,06,14,11.80
2018,08,04,06,15,11.80
2018,08,04,06,16,11.80
2018,08,04,06,17,11.80
2018,08,04,06,18,11.80
2018,08,04,06,19,11.80
2018,08,04,06,20,11.80
2018,08,04,06,21,11.80
2018,08,04,06,22,11.80
2018,08,04,06,23,11.80
2018,08,04,06,24,11.80
2018,08,04,06,25,11.90
2018,08,04,06,26,11.90
2018,08,04,06,27,11.90
2018,08,04,06,28,11.90
2018,08,04,06,29,11.90
2018,08,04,06,30,11.90
2018,08,04,06,31,11.90
2018,08,04,06,32,11.90
2018,08,04,06,33,12.00
2018,08,04,06,34,12.00
2018,08,04,06,35,12.10
2018,08,04,06,36,12.10
2018,08,04,06,37,12.10
2018,08,04,06,38,12.20
2018,08,04,06,39,12.20
2018,08,04,06,40,12.20
2018,08,04,06,41,12.20
2018,08,04,06,42,12.30
2018,08,04,06,43,12.30
2018,08,04,06,44,12.30
2018,08,04,06,45,12.40
2018,08,04,06,46,12.40
2018,08,04,06,47,12.50
2018,08,04,06,48,12.50
2018,08,04,06,49,12.60
2018,08,04,06,50,12.60
2018,08,04,06,51,12.70
2018,08,04,06,52,12.80
2018,08,04,06,53,12.80
2018,08,04,06,54,12.90
2018,08,04,06,55,12.90
2018,08,04,06,56,13.00
2018,08,04,06,57,13.00
2018,08,04,06,58,13.10
2018,08,04,06,59,13.10
2018,08,04,07,00,13.10
2018,08,04,07,01,13.20
2018,08,04,07,02,13.20
2018,08,04,07,03,13.30
2018,08,04,07,04,13.40
2018,08,04,07,05,13.50
2018,08,04,07,06,13.50
2018,08,04,07,07,13.60
2018,08,04,07,08,13.70
2018,08,04,07,09,13.80
2018,08,04,07,10,13.90
2018,08,04,07,11,14.00
2018,08,04,07,12,14.10
2018,08,04,07,13,14.20
2018,08,04,07,14,14.30
2018,08,04,07,15,14.30
2018,08,04,07,16,14.30
2018,08,04,07,17,14.30
2018,08,04,07,18,14.30
2018,08,04,07,19,14.30
2018,08,04,07,20,14.40
2018,08,04,07,21,14.40
2018,08,04,07,22,14.40
2018,08,04,07,23,14.40
2018,08,04,07,24,14.50
2018,08,04,07,25,14.60
2018,08,04,07,26,14.60
2018,08,04,07,27,14.70
2018,08,04,07,28,14.80
2018,08,04,07,29,14.90
2018,08,04,07,30,15.00
2018,08,04,07,31,15.10
2018,08,04,07,32,15.20
2018,08,04,07,33,15.20
2018,08,04,07,34,15.30
2018,08,04,07,35,15.40
2018,08,04,07,36,15.40
2018,08,04,07,37,15.50
2018,08,04,07,38,15.60
2018,08,04,07,39,15.60
2018,08,04,07,40,15.70
2018,08,04,07,41,15.70
2018,08,04,07,42,15.70
2018,08,04,07,43,15.70
2018,08,04,07,44,15.70
2018,08,04,07,45,15.70
2018,08,04,07,46,15.70
2018,08,04,07,47,15.60
2018,08,04,07,48,15.60
2018,08,04,07,49,15.60
2018,08,04,07,50,15.70
2018,08,04,07,51,15.70
2018,08,04,07,52,15.70
2018,08,04,07,53,15.70
2018,08,04,07,54,15.70
2018,08,04,07,55,15.80
2018,08,04,07,56,15.90
2018,08,04,07,57,15.90
2018,08,04,07,58,15.90
2018,08,04,07,59,16.00
2018,08,04,08,00,16.00
2018,08,04,08,01,16.00
2018,08,04,08,02,16.10
2018,08,04,08,03,16.20
2018,08,04,08,04,16.20
2018,08,04,08,05,16.20
2018,08,04,08,06,16.30
2018,08,04,08,07,16.20
2018,08,04,08,08,16.20
2018,08,04,08,09,16.20
2018,08,04,08,10,16.20
2018,08,04,08,11,16.20
2018,08,04,08,12,16.20
2018,08,04,08,13,16.30
2018,08,04,08,14,16.40
2018,08,04,08,15,16.50
2018,08,04,08,16,16.60
2018,08,04,08,17,16.60
2018,08,04,08,18,16.70
2018,08,04,08,19,16.70
2018,08,04,08,20,16.70
2018,08,04,08,21,16.80
2018,08,04,08,22,16.80
2018,08,04,08,23,16.80
2018,08,04,08,24,16.80
2018,08,04,08,25,16.80
2018,08,04,08,26,16.80
2018,08,04,08,27,16.90
2018,08,04,08,28,17.00
2018,08,04,08,29,17.10
2018,08,04,08,30,17.20
2018,08,04,08,31,17.20
2018,08,04,08,32,17.30
2018,08,04,08,33,17.40
2018,08,04,08,34,17.50
2018,08,04,08,35,17.60
2018,08,04,08,36,17.70
2018,08,04,08,37,17.70
2018,08,04,08,38,17.70
2018,08,04,08,39,17.80
2018,08,04,08,40,17.80
2018,08,04,08,41,17.80
2018,08,04,08,42,17.80
2018,08,04,08,43,17.80
2018,08,04,08,44,17.70
2018,08,04,08,45,17.70
2018,08,04,08,46,17.70
2018,08,04,08,47,17.60
2018,08,04,08,48,17.60
2018,08,04,08,49,17.70
2018,08,04,08,50,17.70
2018,08,04,08,51,17.70
2018,08,04,08,52,17.70
2018,08,04,08,53,17.70
2018,08,04,08,54,17.70
2018,08,04,08,55,17.70
2018,08,04,08,56,17.70
2018,08,04,08,57,17.70
2018,08,04,08,58,17.70
2018,08,04,08,59,17.70
2018,08,04,09,00,17.70
2018,08,04,09,01,17.80
2018,08,04,09,02,17.80
2018,08,04,09,03,17.80
2018,08,04,09,04,17.90
2018,08,04,09,05,18.00
2018,08,04,09,06,18.00
2018,08,04,09,07,18.10
2018,08,04,09,08,18.20
2018,08,04,09,09,18.20
2018,08,04,09,10,18.30
2018,08,04,09,11,18.40
2018,08,04,09,12,18.50
2018,08,04,09,13,18.50
2018,08,04,09,14,18.60
2018,08,04,09,15,18.60
2018,08,04,09,16,18.70
2018,08,04,09,17,18.70
2018,08,04,09,18,18.70
2018,08,04,09,19,18.70
2018,08,04,09,20,18.70
2018,08,04,09,21,18.80
2018,08,04,09,22,18.80
2018,08,04,09,23,18.70
2018,08,04,09,24,18.70
2018,08,04,09,25,18.70
2018,08,04,09,26,18.80
2018,08,04,09,27,18.90
2018,08,04,09,28,18.90
2018,08,04,09,29,18.80
2018,08,04,09,30,18.80
2018,08,04,09,31,18.80
2018,08,04,09,32,18.80
2018,08,04,09,33,18.80
2018,08,04,09,34,18.80
2018,08,04,09,35,18.70
2018,08,04,09,36,18.70
2018,08,04,09,37,18.70
2018,08,04,09,38,18.80
2018,08,04,09,39,18.90
2018,08,04,09,40,19.00
2018,08,04,09,41,19.00
2018,08,04,09,42,19.20
2018,08,04,09,43,19.30
2018,08,04,09,44,19.40
2018,08,04,09,45,19.60
2018,08,04,09,46,19.70
2018,08,04,09,47,19.80
2018,08,04,09,48,19.90
2018,08,04,09,49,19.90
2018,08,04,09,50,19.90
2018,08,04,09,51,20.00
2018,08,04,09,52,19.90
2018,08,04,09,53,19.90
2018,08,04,09,54,19.70
2018,08,04,09,55,19.50
2018,08,04,09,56,19.40
2018,08,04,09,57,19.30
2018,08,04,09,58,19.30
2018,08,04,09,59,19.30
2018,08,04,10,00,19.30
2018,08,04,10,01,19.30
2018,08,04,10,02,19.30
2018,08,04,10,03,19.30
2018,08,04,10,04,19.30
2018,08,04,10,05,19.40
2018,08,04,10,06,19.50
2018,08,04,10,07,19.60
2018,08,04,10,08,19.70
2018,08,04,10,09,19.70
2018,08,04,10,10,19.70
2018,08,04,10,11,19.60
2018,08,04,10,12,19.60
2018,08,04,10,13,19.60
2018,08,04,10,14,19.60
2018,08,04,10,15,19.70
2018,08,04,10,16,19.80
2018,08,04,10,17,19.80
2018,08,04,10,18,19.80
2018,08,04,10,19,19.90
2018,08,04,10,20,19.90
2018,08,04,10,21,19.90
2018,08,04,10,22,19.90
2018,08,04,10,23,19.90
2018,08,04,10,24,19.90
2018,08,04,10,25,20.00
2018,08,04,10,26,20.10
2018,08,04,10,27,20.20
2018,08,04,10,28,20.30
2018,08,04,10,29,20.30
2018,08,04,10,30,20.40
2018,08,04,10,31,20.50
2018,08,04,10,32,20.60
2018,08,04,10,33,20.60
2018,08,04,10,34,20.70
2018,08,04,10,35,20.70
2018,08,04,10,36,20.60
2018,08,04,10,37,20.60
2018,08,04,10,38,20.60
2018,08,04,10,39,20.70
2018,08,04,10,40,20.70
2018,08,04,10,41,20.80
2018,08,04,10,42,20.70
2018,08,04,10,43,20.70
2018,08,04,10,44,20.60
2018,08,04,10,45,20.60
2018,08,04,10,46,20.50
2018,08,04,10,47,20.20
2018,08,04,10,48,20.00
2018,08,04,10,49,19.70
2018,08,04,10,50,19.60
2018,08,04,10,51,19.40
2018,08,04,10,52,19.30
2018,08,04,10,53,19.30
2018,08,04,10,54,19.20
2018,08,04,10,55,19.20
2018,08,04,10,56,19.10
2018,08,04,10,57,19.00
2018,08,04,10,58,19.00
2018,08,04,10,59,19.10
2018,08,04,11,00,19.10
2018,08,04,11,01,19.10
2018,08,04,11,02,19.20
2018,08,04,11,03,19.30
2018,08,04,11,04,19.30
2018,08,04,11,05,19.40
2018,08,04,11,06,19.50
2018,08,04,11,07,19.60
2018,08,04,11,08,19.70
2018,08,04,11,09,19.70
2018,08,04,11,10,19.70
2018,08,04,11,11,19.60
2018,08,04,11,12,19.60
2018,08,04,11,13,19.60
2018,08,04,11,14,19.70
2018,08,04,11,15,19.80
2018,08,04,11,16,19.80
2018,08,04,11,17,19.90
2018,08,04,11,18,20.00
2018,08,04,11,19,20.20
2018,08,04,11,20,20.30
2018,08,04,11,21,20.50
2018,08,04,11,22,20.70
2018,08,04,11,23,20.90
2018,08,04,11,24,21.10
2018,08,04,11,25,21.20
2018,08,04,11,26,21.20
2018,08,04,11,27,21.20
2018,08,04,11,28,21.20
2018,08,04,11,29,21.20
2018,08,04,11,30,21.30
2018,08,04,11,31,21.30
2018,08,04,11,32,21.40
2018,08,04,11,33,21.50
2018,08,04,11,34,21.50
2018,08,04,11,35,21.60
2018,08,04,11,36,21.70
2018,08,04,11,37,21.80
2018,08,04,11,38,21.90
2018,08,04,11,39,21.90
2018,08,04,11,40,21.80
2018,08,04,11,41,21.60
2018,08,04,11,42,21.50
2018,08,04,11,43,21.40
2018,08,04,11,44,21.40
2018,08,04,11,45,21.30
2018,08,04,11,46,21.20
2018,08,04,11,47,21.10
2018,08,04,11,48,21.00
2018,08,04,11,49,20.90
2018,08,04,11,50,20.90
2018,08,04,11,51,20.80
2018,08,04,11,52,20.80
2018,08,04,11,53,20.90
2018,08,04,11,54,20.90
2018,08,04,11,55,20.90
2018,08,04,11,56,20.90
2018,08,04,11,57,20.90
2018,08,04,11,58,20.90
2018,08,04,11,59,21.00
2018,08,04,12,00,21.00
2018,08,04,12,01,21.00
2018,08,04,12,02,21.00
2018,08,04,12,03,21.00
2018,08,04,12,04,21.10
2018,08,04,12,05,21.00
2018,08,04,12,06,21.00
2018,08,04,12,07,20.90
2018,08,04,12,08,20.90
2018,08,04,12,09,20.90
2018,08,04,12,10,20.70
2018,08,04,12,11,20.70
2018,08,04,12,12,20.60
2018,08,04,12,13,20.60
2018,08,04,12,14,20.70
2018,08,04,12,15,20.80
2018,08,04,12,16,20.90
2018,08,04,12,17,20.90
2018,08,04,12,18,21.00
2018,08,04,12,19,20.90
2018,08,04,12,20,20.70
2018,08,04,12,21,20.50
2018,08,04,12,22,20.30
2018,08,04,12,23,20.30
2018,08,04,12,24,20.40
2018,08,04,12,25,20.50
2018,08,04,12,26,20.60
2018,08,04,12,27,20.70
2018,08,04,12,28,20.60
2018,08,04,12,29,20.50
2018,08,04,12,30,20.40
2018,08,04,12,31,20.40
2018,08,04,12,32,20.40
2018,08,04,12,33,20.50
2018,08,04,12,34,20.50
2018,08,04,12,35,20.40
2018,08,04,12,36,20.30
2018,08,04,12,37,20.20
2018,08,04,12,38,20.20
2018,08,04,12,39,20.20
2018,08,04,12,40,20.20
2018,08,04,12,41,20.20
2018,08,04,12,42,20.20
2018,08,04,12,43,20.10
2018,08,04,12,44,20.00
2018,08,04,12,45,19.90
2018,08,04,12,46,19.80
2018,08,04,12,47,19.90
2018,08,04,12,48,19.80
2018,08,04,12,49,19.80
2018,08,04,12,50,19.80
2018,08,04,12,51,19.70
2018,08,04,12,52,19.80
2018,08,04,12,53,19.90
2018,08,04,12,54,19.90
2018,08,04,12,55,19.80
2018,08,04,12,56,19.80
2018,08,04,12,57,19.80
2018,08,04,12,58,19.80
2018,08,04,12,59,19.80
2018,08,04,13,00,19.80
2018,08,04,13,01,19.80
2018,08,04,13,02,19.70
2018,08,04,13,03,19.70
2018,08,04,13,04,19.70
2018,08,04,13,05,19.70
2018,08,04,13,06,19.90
2018,08,04,13,07,20.00
2018,08,04,13,08,20.10
2018,08,04,13,09,20.20
2018,08,04,13,10,20.20
2018,08,04,13,11,20.30
2018,08,04,13,12,20.20
2018,08,04,13,13,20.20
2018,08,04,13,14,20.20
2018,08,04,13,15,20.20
2018,08,04,13,16,20.30
2018,08,04,13,17,20.30
2018,08,04,13,18,20.20
2018,08,04,13,19,20.20
2018,08,04,13,20,20.30
2018,08,04,13,21,20.40
2018,08,04,13,22,20.30
2018,08,04,13,23,20.20
2018,08,04,13,24,20.20
2018,08,04,13,25,20.30
2018,08,04,13,26,20.40
2018,08,04,13,27,20.40
2018,08,04,13,28,20.40
2018,08,04,13,29,20.50
2018,08,04,13,30,20.30
2018,08,04,13,31,20.10
2018,08,04,13,32,20.10
2018,08,04,13,33,20.00
2018,08,04,13,34,20.00
2018,08,04,13,35,20.00
2018,08,04,13,36,20.00
2018,08,04,13,37,19.90
2018,08,04,13,38,19.90
2018,08,04,13,39,19.80
2018,08,04,13,40,19.70
2018,08,04,13,41,19.70
2018,08,04,13,42,19.60
2018,08,04,13,43,19.50
2018,08,04,13,44,19.40
2018,08,04,13,45,19.30
2018,08,04,13,46,19.40
2018,08,04,13,47,19.40
2018,08,04,13,48,19.40
2018,08,04,13,49,19.40
2018,08,04,13,50,19.40
2018,08,04,13,51,19.40
2018,08,04,13,52,19.50
2018,08,04,13,53,19.50
2018,08,04,13,54,19.60
2018,08,04,13,55,19.60
2018,08,04,13,56,19.60
2018,08,04,13,57,19.60
2018,08,04,13,58,19.70
2018,08,04,13,59,19.70
2018,08,04,14,00,19.90
2018,08,04,14,01,19.90
2018,08,04,14,02,19.90
2018,08,04,14,03,19.80
2018,08,04,14,04,19.80
2018,08,04,14,05,19.90
2018,08,04,14,06,19.90
2018,08,04,14,07,20.00
2018,08,04,14,08,20.10
2018,08,04,14,09,20.00
2018,08,04,14,10,20.00
2018,08,04,14,11,20.10
2018,08,04,14,12,20.10
2018,08,04,14,13,20.00
2018,08,04,14,14,19.90
2018,08,04,14,15,19.90
2018,08,04,14,16,19.90
2018,08,04,14,17,19.90
2018,08,04,14,18,19.80
2018,08,04,14,19,19.70
2018,08,04,14,20,19.80
2018,08,04,14,21,19.80
2018,08,04,14,22,19.80
2018,08,04,14,23,19.80
2018,08,04,14,24,20.00
2018,08,04,14,25,20.10
2018,08,04,14,26,20.10
2018,08,04,14,27,20.30
2018,08,04,14,28,20.60
2018,08,04,14,29,20.80
2018,08,04,14,30,21.00
2018,08,04,14,31,21.00
2018,08,04,14,32,21.00
2018,08,04,14,33,20.90
2018,08,04,14,34,20.80
2018,08,04,14,35,20.80
2018,08,04,14,36,20.80
2018,08,04,14,37,20.80
2018,08,04,14,38,20.80
2018,08,04,14,39,20.90
2018,08,04,14,40,20.90
2018,08,04,14,41,21.00
2018,08,04,14,42,21.10
2018,08,04,14,43,21.10
2018,08,04,14,44,21.10
2018,08,04,14,45,21.20
2018,08,04,14,46,21.10
2018,08,04,14,47,21.10
2018,08,04,14,48,21.20
2018,08,04,14,49,21.40
2018,08,04,14,50,21.50
2018,08,04,14,51,21.30
2018,08,04,14,52,21.20
2018,08,04,14,53,21.20
2018,08,04,14,54,21.10
2018,08,04,14,55,21.20
2018,08,04,14,56,21.30
2018,08,04,14,57,21.40
2018,08,04,14,58,21.40
2018,08,04,14,59,21.30
2018,08,04,15,00,21.30
2018,08,04,15,01,21.40
2018,08,04,15,02,21.40
2018,08,04,15,03,21.30
2018,08,04,15,04,21.30
2018,08,04,15,05,21.30
2018,08,04,15,06,21.30
2018,08,04,15,07,21.30
2018,08,04,15,08,21.30
2018,08,04,15,09,21.30
2018,08,04,15,10,21.30
2018,08,04,15,11,21.40
2018,08,04,15,12,21.40
2018,08,04,15,13,21.50
2018,08,04,15,14,21.60
2018,08,04,15,15,21.60
2018,08,04,15,16,21.70
2018,08,04,15,17,21.60
2018,08,04,15,18,21.60
2018,08,04,15,19,21.60
2018,08,04,15,20,21.70
2018,08,04,15,21,21.80
2018,08,04,15,22,21.90
2018,08,04,15,23,22.00
2018,08,04,15,24,21.90
2018,08,04,15,25,21.90
2018,08,04,15,26,21.90
2018,08,04,15,27,21.80
2018,08,04,15,28,21.80
2018,08,04,15,29,21.80
2018,08,04,15,30,21.70
2018,08,04,15,31,21.70
2018,08,04,15,32,21.70
2018,08,04,15,33,21.70
2018,08,04,15,34,21.80
2018,08,04,15,35,21.80
2018,08,04,15,36,21.80
2018,08,04,15,37,21.80
2018,08,04,15,38,21.70
2018,08,04,15,39,21.80
2018,08,04,15,40,21.80
2018,08,04,15,41,21.70
2018,08,04,15,42,21.70
2018,08,04,15,43,21.80
2018,08,04,15,44,21.80
2018,08,04,15,45,21.80
2018,08,04,15,46,21.80
2018,08,04,15,47,21.90
2018,08,04,15,48,21.80
2018,08,04,15,49,21.80
2018,08,04,15,50,21.90
2018,08,04,15,51,22.00
2018,08,04,15,52,22.10
2018,08,04,15,53,22.10
2018,08,04,15,54,22.20
2018,08,04,15,55,22.30
2018,08,04,15,56,22.40
2018,08,04,15,57,22.40
2018,08,04,15,58,22.40
2018,08,04,15,59,22.40
2018,08,04,16,00,22.40
2018,08,04,16,01,22.50
2018,08,04,16,02,22.60
2018,08,04,16,03,22.70
2018,08,04,16,04,22.60
2018,08,04,16,05,22.60
2018,08,04,16,06,22.50
2018,08,04,16,07,22.40
2018,08,04,16,08,22.30
2018,08,04,16,09,22.30
2018,08,04,16,10,22.20
2018,08,04,16,11,22.20
2018,08,04,16,12,22.20
2018,08,04,16,13,22.20
2018,08,04,16,14,22.10
2018,08,04,16,15,22.20
2018,08,04,16,16,22.40
2018,08,04,16,17,22.40
2018,08,04,16,18,22.40
2018,08,04,16,19,22.30
2018,08,04,16,20,22.30
2018,08,04,16,21,22.20
2018,08,04,16,22,22.30
2018,08,04,16,23,22.20
2018,08,04,16,24,22.20
2018,08,04,16,25,22.20
2018,08,04,16,26,22.20
2018,08,04,16,27,22.30
2018,08,04,16,28,22.40
2018,08,04,16,29,22.50
2018,08,04,16,30,22.50
2018,08,04,16,31,22.50
2018,08,04,16,32,22.40
2018,08,04,16,33,22.40
2018,08,04,16,34,22.40
2018,08,04,16,35,22.40
2018,08,04,16,36,22.40
2018,08,04,16,37,22.40
2018,08,04,16,38,22.40
2018,08,04,16,39,22.50
2018,08,04,16,40,22.70
2018,08,04,16,41,22.90
2018,08,04,16,42,22.90
2018,08,04,16,43,22.80
2018,08,04,16,44,22.70
2018,08,04,16,45,22.70
2018,08,04,16,46,22.70
2018,08,04,16,47,22.80
2018,08,04,16,48,22.70
2018,08,04,16,49,22.60
2018,08,04,16,50,22.60
2018,08,04,16,51,22.60
2018,08,04,16,52,22.70
2018,08,04,16,53,22.80
2018,08,04,16,54,22.80
2018,08,04,16,55,22.90
2018,08,04,16,56,23.00
2018,08,04,16,57,23.00
2018,08,04,16,58,23.10
2018,08,04,16,59,23.00
2018,08,04,17,00,23.00
2018,08,04,17,01,22.90
2018,08,04,17,02,22.80
2018,08,04,17,03,22.70
2018,08,04,17,04,22.70
2018,08,04,17,05,22.70
2018,08,04,17,06,22.70
2018,08,04,17,07,22.70
2018,08,04,17,08,22.60
2018,08,04,17,09,22.60
2018,08,04,17,10,22.50
2018,08,04,17,11,22.40
2018,08,04,17,12,22.50
2018,08,04,17,13,22.50
2018,08,04,17,14,22.40
2018,08,04,17,15,22.30
2018,08,04,17,16,22.20
2018,08,04,17,17,22.20
2018,08,04,17,18,22.30
2018,08,04,17,19,22.40